sat.trackr.live / text

‹ back to catalog

STARLINK-2334

NORAD 47792 · 2021-018F

PAYLOAD ACTIVE UNKNOWN

§ Identity

Operator
Country
US
Launch date
2021-03-11
Launch site
AFETR
Launch vehicle
Mass (kg)
RCS (m²)

Purposes: comms

External: N2YO · Heavens-Above · Gunter

§ Orbital elements

Epoch: 2026-09-20T00:24:02.530080Z

Period
94.01 min
Inclination
53.1608°
Eccentricity
0.0000956
Mean motion
15.31699885 rev/d
Perigee alt
470.1 km
Apogee alt
471.4 km
Semi-major
6,848.9 km
B*
8.4278e-5
RAAN
54.7841°
Arg perigee
101.7080°
Mean anomaly
258.4029°
Rev number
30,654

§ Raw data

STARLINK-23341 47792U 21018F   26263.01669595  .00002251  00000+0  84278-4 0  99932 47792  53.1608  54.7841 0000956 101.7080 258.4029 15.31699885306543

JSON: /api/v1/satellites/47792 · /tle

For live sub-satellite position, see the globe view (requires WebGL).

§ Visibility from observer

Set your observer location to see the next 7 days of passes ≥ 10°. The values pass through the URL so the page stays shareable.

No JS? Fill the form by hand. The geolocation button needs JavaScript.